Wind_Speed
24 24 23 23 24 24 24 25 25 25 26 26 26 26 26 25 25 26 25 25 24 24 26 26 26 27 27 26 26 26 26 26 26 26 26 26 27 27 27 28 27 27 26
24 24 24 24 25 26 26 26 26 27 27 27 27 26 26 26 26 25 26 26 26 26 26 26 26 26 27 27 27 26 26 26 26 26 27 27 28 28 28 28 28 28 27
24 24 25 25 24 25 26 26 27 27 27 27 27 27 27 27 26 26 26 26 27 27 26 26 26 26 27 27 27 27 27 27 27 27 27 28 28 29 29 29 28 29 29
24 24 24 25 25 25 26 26 26 27 27 27 27 27 27 27 27 26 26 26 26 27 26 26 27 26 27 28 27 27 28 28 29 28 28 28 29 28 29 29 28 28 29
24 24 25 25 25 26 26 26 26 26 27 28 27 26 26 26 27 26 26 26 26 26 26 27 28 27 26 27 27 27 28 28 29 29 29 29 29 29 29 29 30 29 29
24 24 24 24 25 26 26 26 27 27 27 27 26 26 26 26 26 26 26 26 26 26 26 27 27 27 27 27 27 28 29 29 29 29 29 29 30 30 30 30 30 31 31
25 25 25 26 26 26 26 27 28 28 27 27 26 26 26 25 25 26 26 26 25 26 27 27 27 27 27 27 29 29 29 29 30 30 30 30 31 31 31 31 31 32 32
25 25 25 26 26 27 27 28 28 27 26 26 26 26 25 25 25 26 26 26 26 26 27 28 27 26 27 28 28 29 30 30 30 31 32 31 31 31 31 31 32 32 33
26 27 26 26 27 27 27 27 26 26 25 25 26 26 25 24 25 26 26 27 27 26 26 26 26 26 27 27 28 29 30 30 31 32 32 33 32 33 32 32 32 33 34
26 26 26 26 26 26 26 25 25 24 24 25 26 26 26 25 25 25 26 26 27 26 26 27 27 27 27 27 28 29 30 30 30 31 32 32 33 33 34 33 34 34 34
25 25 25 25 25 24 24 24 24 24 23 24 25 25 26 26 27 27 26 26 27 27 27 27 27 28 28 28 29 29 30 30 29 30 30 31 33 33 34 34 34 34 34
25 24 24 23 23 23 23 22 22 22 22 24 24 25 26 26 27 28 27 27 27 27 27 27 27 28 29 29 29 29 29 30 30 31 31 32 33 33 33 34 34 34 34
23 23 22 22 23 23 22 22 22 21 21 23 24 25 25 26 26 26 26 26 26 26 26 25 26 27 28 28 28 28 29 29 30 30 31 32 32 33 33 33 34 35 35
23 22 22 21 21 21 22 22 22 23 24 24 25 25 26 25 25 24 23 24 24 24 24 25 26 26 27 27 27 27 27 28 29 30 30 31 32 32 33 33 33 34 34
22 22 22 21 21 21 21 22 23 24 25 25 25 25 25 25 24 24 23 22 23 24 24 24 25 25 26 27 26 27 27 28 28 29 30 30 31 32 32 33 33 34 34
22 21 21 21 21 21 21 22 23 23 24 24 24 24 24 23 23 22 22 22 22 23 24 25 26 27 28 27 26 27 27 27 27 28 30 30 31 31 32 33 34 34 34
21 20 20 21 21 21 21 22 22 23 24 24 23 23 23 22 22 22 22 22 24 24 24 25 26 27 28 28 29 28 26 27 28 29 30 31 31 32 32 33 33 33 34
21 20 21 21 21 21 22 22 23 23 23 23 23 23 22 21 21 22 22 22 23 24 24 25 26 26 27 28 29 29 28 28 28 29 29 30 31 32 33 33 33 33 34
21 21 21 21 21 22 22 22 22 23 23 23 22 22 21 21 21 21 22 22 23 23 24 24 25 26 27 28 27 27 28 29 29 29 29 29 30 31 32 33 33 33 33
21 22 21 22 22 21 22 22 22 22 22 22 22 21 20 20 20 20 21 21 22 23 23 23 24 25 25 26 26 26 27 27 28 28 28 29 29 30 31 32 32 33 33
21 22 22 22 22 22 23 22 22 21 22 21 21 20 20 20 19 19 20 20 21 21 21 22 22 22 22 24 25 25 25 26 26 26 27 28 29 29 30 31 31 31 32
22 22 23 23 23 23 23 22 22 21 21 21 20 20 20 20 20 20 19 20 20 20 20 21 21 21 21 22 24 24 24 24 24 25 25 25 26 27 27 27 28 29 29
21 22 23 23 23 22 22 21 21 20 20 20 20 19 19 19 19 19 18 19 19 19 19 20 21 21 21 22 23 24 24 24 23 24 25 24 24 25 25 26 27 28 29
21 21 21 22 21 21 21 21 20 20 19 19 19 18 18 18 18 17 17 17 17 17 18 19 20 20 21 22 22 23 23 23 23 23 24 23 24 25 25 26 27 28 29
21 21 21 20 20 20 20 19 18 18 18 17 17 17 17 17 17 16 16 15 16 16 17 18 19 20 20 21 21 21 22 21 21 22 23 23 23 24 25 26 27 28 29
20 19 20 20 19 19 18 17 17 17 16 15 16 16 16 15 15 15 14 14 14 15 15 16 17 17 17 18 18 18 19 19 19 20 20 22 23 24 25 25 26 28 29
Wind_Direction
288 286 283 283 283 283 284 283 284 283 282 280 279 278 277 277 274 273 271 269 268 267 266 265 263 259 258 257 256 254 253 251 250 249 248 246 245 247 248 248 247 248 247
287 285 281 283 282 282 283 284 283 283 282 281 278 276 275 274 274 277 272 269 267 268 267 265 263 260 256 255 255 253 253 250 249 248 248 247 247 247 248 247 247 247 246
292 290 286 284 284 284 284 283 283 282 280 280 278 275 273 272 274 276 273 270 270 268 266 264 262 261 256 255 254 252 253 251 250 249 248 248 247 247 248 247 247 247 245
294 294 291 289 288 290 290 288 287 283 280 279 280 277 274 274 275 275 273 270 268 268 266 264 262 260 258 256 254 253 252 251 250 249 248 248 248 247 247 248 248 248 247
298 296 293 291 290 290 291 291 291 286 281 279 279 278 276 276 276 275 271 269 267 266 266 266 262 261 258 256 254 253 252 252 251 249 249 250 250 248 248 249 249 248 248
299 298 294 291 290 291 292 293 293 289 283 280 279 278 276 275 275 275 271 268 266 265 265 264 263 260 258 258 256 254 254 253 251 249 248 249 250 249 248 249 249 248 247
297 297 296 294 292 291 293 294 293 290 285 282 280 278 276 275 274 274 271 269 267 265 263 262 262 261 260 258 257 256 255 252 250 249 248 248 249 250 249 249 249 248 247
297 297 296 295 294 293 293 293 292 290 288 284 280 278 277 277 275 274 271 268 267 265 262 260 261 263 261 259 257 256 254 252 251 250 249 250 250 251 251 250 250 248 247
296 295 295 295 295 295 294 293 292 290 287 283 282 280 278 276 276 275 273 270 268 265 262 260 260 262 261 260 259 256 254 253 252 251 250 250 251 252 252 250 250 249 248
297 296 296 296 297 298 297 294 293 292 288 284 283 281 279 278 276 274 272 269 268 266 263 261 261 261 261 261 260 258 256 254 254 253 252 251 251 252 252 252 251 251 250
299 300 297 296 295 296 297 295 295 295 291 287 285 282 280 280 280 278 274 270 267 266 265 263 262 261 262 262 261 260 258 256 255 253 253 253 253 252 253 253 253 252 251
301 300 296 296 296 297 298 298 299 297 292 289 287 284 282 280 282 280 275 271 267 266 265 264 264 263 264 264 262 261 259 257 255 254 253 253 253 253 252 253 252 252 252
302 300 297 296 297 298 299 298 297 298 295 293 290 287 285 283 282 279 275 271 267 265 263 262 263 263 263 264 263 262 261 258 257 256 256 254 253 253 253 253 252 252 252
303 302 298 298 298 299 299 298 298 299 296 294 290 287 286 284 282 278 275 271 266 264 262 260 261 262 262 263 262 262 262 261 260 258 256 254 253 254 255 254 253 252 251
306 303 300 301 300 300 301 299 299 299 299 297 293 289 286 284 281 277 273 270 267 266 262 261 260 260 262 263 263 262 262 262 260 258 256 253 254 255 256 256 255 253 252
307 305 304 302 302 301 302 302 301 301 300 299 296 294 291 288 283 280 277 273 272 269 266 264 263 264 264 265 265 264 264 261 259 258 256 255 256 256 257 257 256 254 253
310 307 306 306 305 303 303 305 306 304 302 301 299 297 294 291 285 281 280 277 274 272 269 266 265 264 264 264 265 265 265 263 261 259 258 258 258 256 256 256 255 253 253
312 310 307 306 305 304 305 306 307 307 305 303 300 299 295 291 288 284 282 279 275 272 271 270 267 268 266 265 265 264 264 264 262 261 261 260 259 258 257 257 256 254 252
312 311 309 307 306 304 305 306 307 308 307 305 302 297 293 292 290 287 283 281 277 274 273 272 271 269 266 266 266 266 265 265 264 263 262 261 260 259 258 258 256 253 251
313 311 309 307 307 307 307 306 305 305 305 304 303 301 298 295 292 290 287 284 281 277 275 273 273 272 268 267 266 265 265 266 265 263 262 263 262 259 257 256 256 254 252
315 313 310 307 306 306 306 307 306 305 304 304 303 302 302 299 297 294 291 289 285 280 278 276 275 274 273 269 268 267 266 267 266 264 263 263 262 260 257 258 258 256 254
318 316 312 308 306 306 306 307 306 304 303 302 303 302 301 302 299 297 294 291 287 283 280 278 277 276 276 274 272 271 271 270 269 268 267 266 265 264 261 260 258 257 254
318 318 316 313 310 308 307 307 307 305 303 304 305 304 304 306 302 300 296 293 291 287 283 281 279 278 276 276 274 272 271 271 271 270 268 266 265 264 263 262 260 257 255
323 322 320 319 317 315 312 309 309 307 306 305 305 304 306 308 307 305 302 299 296 291 288 284 282 280 277 276 276 273 272 270 271 270 269 266 264 265 264 264 263 259 257
327 327 327 327 327 324 320 315 311 311 310 308 307 308 308 308 307 305 306 302 300 295 291 289 287 283 281 279 276 275 272 271 270 271 270 268 267 266 265 264 264 261 260
332 333 335 337 336 334 331 327 322 318 315 311 310 310 309 310 311 311 311 307 305 304 300 297 294 289 286 283 280 278 275 273 273 275 272 271 271 270 267 264 264 263 260
Height
5839 5837 5836 5834 5833 5831 5830 5828 5827 5825 5824 5822 5820 5818 5817 5816 5814 5813 5812 5812 5811 5811 5811 5811 5811 5811 5812 5812 5813 5814 5815 5816 5818 5819 5820 5822 5824 5826 5828 5830 5831 5833 5835
5833 5831 5830 5828 5827 5825 5823 5821 5819 5818 5816 5815 5813 5812 5810 5809 5808 5807 5806 5805 5804 5804 5804 5804 5804 5804 5805 5806 5806 5807 5808 5810 5811 5813 5814 5816 5818 5819 5821 5823 5825 5827 5829
5827 5825 5823 5821 5820 5818 5816 5814 5812 5810 5809 5807 5806 5805 5803 5802 5801 5800 5798 5797 5797 5797 5797 5797 5797 5797 5797 5798 5799 5800 5802 5803 5805 5806 5808 5809 5811 5813 5815 5817 5818 5820 5822
5821 5819 5817 5815 5813 5811 5809 5807 5805 5803 5801 5800 5798 5797 5796 5794 5794 5793 5791 5790 5790 5790 5790 5790 5790 5790 5790 5791 5792 5794 5795 5796 5798 5799 5801 5803 5804 5806 5808 5810 5812 5813 5815
5815 5813 5811 5809 5807 5805 5802 5800 5797 5795 5794 5792 5791 5789 5788 5787 5786 5785 5784 5784 5783 5783 5783 5782 5782 5783 5783 5784 5785 5786 5788 5789 5791 5792 5794 5796 5798 5799 5801 5803 5805 5806 5808
5809 5807 5804 5802 5800 5798 5795 5793 5790 5788 5786 5784 5783 5782 5781 5780 5778 5777 5777 5776 5776 5775 5775 5775 5775 5776 5776 5777 5777 5778 5781 5782 5784 5785 5787 5789 5790 5792 5794 5795 5797 5799 5801
5803 5800 5798 5796 5794 5791 5788 5785 5783 5780 5779 5777 5775 5774 5773 5772 5771 5770 5769 5768 5768 5768 5768 5768 5768 5768 5769 5769 5770 5772 5773 5774 5776 5778 5779 5781 5783 5785 5786 5788 5790 5791 5793
5797 5794 5791 5789 5787 5784 5781 5778 5775 5773 5771 5769 5767 5766 5766 5765 5763 5762 5761 5760 5760 5760 5760 5760 5761 5761 5761 5762 5763 5764 5765 5766 5768 5770 5771 5773 5775 5777 5778 5780 5782 5783 5785
5790 5787 5784 5782 5779 5776 5773 5770 5767 5765 5763 5761 5759 5758 5758 5758 5756 5755 5753 5753 5752 5752 5753 5753 5753 5754 5754 5755 5755 5756 5757 5758 5760 5761 5763 5765 5766 5768 5770 5771 5773 5774 5776
5782 5780 5777 5774 5772 5769 5766 5763 5760 5758 5755 5754 5752 5750 5749 5749 5748 5748 5747 5745 5745 5745 5745 5746 5746 5746 5747 5747 5748 5748 5749 5750 5752 5753 5754 5756 5758 5759 5761 5762 5764 5765 5767
5775 5772 5770 5767 5765 5762 5759 5756 5753 5751 5748 5747 5745 5743 5742 5740 5739 5738 5739 5738 5737 5737 5737 5738 5738 5739 5739 5739 5740 5741 5741 5742 5743 5745 5746 5747 5749 5750 5751 5753 5754 5756 5757
5768 5765 5763 5760 5758 5755 5752 5750 5747 5744 5742 5740 5738 5736 5735 5733 5731 5730 5729 5729 5729 5730 5729 5730 5730 5730 5730 5731 5732 5733 5733 5734 5735 5736 5737 5738 5740 5741 5742 5744 5745 5746 5748
5761 5758 5756 5753 5751 5748 5746 5744 5742 5739 5736 5733 5731 5729 5727 5725 5723 5721 5720 5720 5721 5721 5722 5722 5722 5722 5722 5723 5724 5724 5725 5725 5726 5727 5728 5729 5730 5731 5733 5734 5736 5737 5738
5755 5752 5749 5747 5744 5742 5740 5738 5736 5733 5730 5727 5724 5722 5720 5717 5716 5714 5713 5712 5712 5713 5713 5714 5714 5714 5714 5715 5715 5716 5716 5717 5717 5718 5719 5720 5721 5722 5723 5724 5726 5727 5729
5749 5746 5743 5741 5738 5736 5734 5732 5730 5727 5724 5720 5717 5714 5712 5710 5708 5707 5706 5705 5705 5705 5705 5706 5706 5706 5706 5707 5707 5707 5708 5708 5708 5709 5709 5710 5712 5713 5714 5715 5716 5717 5719
5743 5740 5737 5735 5732 5730 5728 5726 5723 5720 5717 5713 5710 5707 5705 5703 5701 5699 5698 5697 5697 5696 5697 5698 5698 5698 5698 5698 5699 5699 5699 5700 5700 5700 5700 5701 5702 5703 5704 5705 5706 5707 5709
5737 5735 5732 5729 5727 5725 5723 5720 5717 5714 5710 5707 5703 5701 5698 5696 5694 5693 5691 5690 5689 5688 5688 5689 5689 5689 5689 5689 5690 5690 5690 5691 5691 5691 5691 5692 5693 5694 5695 5696 5696 5698 5699
5732 5729 5727 5724 5722 5720 5717 5714 5711 5708 5704 5701 5697 5694 5692 5689 5688 5686 5684 5683 5682 5681 5680 5681 5680 5680 5680 5680 5681 5681 5682 5682 5682 5682 5682 5683 5683 5684 5685 5686 5686 5688 5689
5727 5724 5722 5719 5716 5714 5711 5708 5705 5701 5698 5694 5691 5688 5686 5683 5681 5679 5677 5676 5674 5673 5672 5672 5672 5671 5671 5671 5671 5672 5672 5672 5673 5673 5673 5674 5674 5675 5675 5676 5677 5678 5680
5722 5719 5716 5713 5710 5708 5705 5701 5698 5695 5692 5688 5685 5682 5679 5677 5674 5672 5670 5668 5667 5665 5664 5664 5663 5663 5662 5662 5663 5663 5663 5663 5664 5664 5664 5665 5665 5665 5666 5667 5668 5669 5670
5717 5714 5710 5707 5704 5701 5698 5695 5692 5689 5685 5682 5679 5676 5674 5671 5668 5666 5663 5661 5660 5658 5657 5656 5656 5655 5654 5654 5655 5654 5654 5654 5655 5654 5655 5656 5656 5656 5657 5657 5658 5659 5661
5712 5708 5704 5701 5698 5695 5691 5688 5685 5682 5679 5676 5673 5670 5668 5665 5662 5660 5657 5655 5653 5652 5650 5649 5649 5648 5647 5647 5646 5646 5646 5646 5647 5647 5646 5646 5646 5647 5648 5648 5649 5650 5651
5706 5702 5698 5694 5691 5688 5684 5681 5678 5676 5673 5670 5667 5664 5662 5659 5656 5654 5651 5649 5647 5645 5644 5643 5642 5641 5641 5640 5639 5639 5638 5638 5638 5638 5638 5638 5638 5638 5639 5639 5640 5641 5642
5701 5697 5693 5689 5685 5681 5678 5675 5672 5669 5666 5664 5661 5659 5656 5654 5651 5649 5646 5644 5642 5640 5638 5637 5636 5634 5633 5632 5631 5631 5630 5630 5630 5629 5629 5630 5630 5630 5630 5631 5631 5632 5633
5697 5693 5688 5684 5680 5676 5672 5669 5666 5663 5660 5658 5655 5653 5651 5649 5646 5644 5641 5639 5637 5635 5633 5631 5629 5627 5626 5624 5623 5623 5622 5622 5622 5622 5621 5621 5622 5622 5622 5623 5622 5622 5623
5693 5689 5685 5681 5676 5672 5668 5665 5662 5658 5656 5653 5651 5648 5646 5644 5641 5639 5637 5634 5632 5630 5627 5625 5623 5621 5619 5617 5617 5616 5616 5615 5615 5615 5613 5613 5613 5613 5614 5614 5613 5613 5613